| time (UTC) | temp F | wind direction | speed knots | gust knots | rain 1hr in | rain 24hr in | rain mn in | humidity % | barometer mb |
| 20260904030004 | 65 | 211 | 5.2 | 13.9 | 0.01 | 0.04 | 0.00 | 86 | 1015.4 |
| 20260904024501 | 65 | 144 | 5.2 | 10.4 | 0.00 | 0.03 | 0.03 | 85 | 1015.5 |
| 20260904023112 | 64 | 226 | 2.6 | 10.4 | 0.00 | 0.03 | 0.03 | 88 | 1015.8 |
| 20260904021558 | 65 | 250 | 1.7 | 8.7 | 0.00 | 0.03 | 0.03 | 91 | 1016.0 |
| 20260904020056 | 65 | 135 | 3.5 | 6.1 | 0.00 | 0.03 | 0.03 | 92 | 1016.1 |
| 20260904014555 | 64 | 160 | 2.6 | 6.1 | 0.00 | 0.03 | 0.03 | 92 | 1016.3 |
| 20260904013111 | 64 | 130 | 0.9 | 4.3 | 0.00 | 0.03 | 0.03 | 92 | 1016.6 |
| 20260904011548 | 64 | 198 | 0.0 | 1.7 | 0.00 | 0.03 | 0.03 | 92 | 1016.8 |
| 20260904010049 | 64 | 155 | 0.9 | 5.2 | 0.00 | 0.03 | 0.03 | 91 | 1017.0 |
| 20260904004546 | 64 | 186 | 0.0 | 2.6 | 0.00 | 0.03 | 0.03 | 92 | 1017.1 |
| 20260904003045 | 64 | 143 | 0.9 | 3.5 | 0.01 | 0.03 | 0.03 | 91 | 1017.3 |
| 20260904001556 | 65 | 152 | 1.7 | 6.1 | 0.01 | 0.03 | 0.03 | 91 | 1017.4 |
| 20260904000040 | 65 | 191 | 2.6 | 5.2 | 0.01 | 0.03 | 0.03 | 91 | 1017.5 |
| 20260903234540 | 65 | 205 | 1.7 | 5.2 | 0.01 | 0.03 | 0.03 | 91 | 1017.5 |
| 20260903233044 | 65 | 193 | 1.7 | 7.0 | 0.00 | 0.02 | 0.02 | 90 | 1017.7 |
| 20260903231541 | 65 | 187 | 2.6 | 6.1 | 0.00 | 0.02 | 0.02 | 90 | 1017.6 |
| 20260903230037 | 65 | 186 | 2.6 | 7.0 | 0.00 | 0.02 | 0.02 | 90 | 1017.8 |
| 20260903224540 | 65 | 221 | 2.6 | 6.1 | 0.00 | 0.02 | 0.02 | 90 | 1017.9 |
| 20260903223038 | 65 | 210 | 2.6 | 6.1 | 0.01 | 0.02 | 0.02 | 89 | 1017.8 |
| 20260903221533 | 65 | 155 | 2.6 | 9.6 | 0.01 | 0.02 | 0.02 | 89 | 1017.9 |
| 20260903220031 | 65 | 133 | 1.7 | 8.7 | 0.02 | 0.02 | 0.02 | 89 | 1018.1 |
| 20260903214534 | 64 | 161 | 2.6 | 6.1 | 0.02 | 0.02 | 0.02 | 89 | 1018.1 |
| 20260903213038 | 65 | 167 | 2.6 | 8.7 | 0.02 | 0.02 | 0.02 | 89 | 1018.3 |
| 20260903211528 | 65 | 176 | 3.5 | 8.7 | 0.02 | 0.02 | 0.02 | 89 | 1018.4 |
| 20260903210028 | 65 | 165 | 1.7 | 6.1 | 0.01 | 0.01 | 0.01 | 88 | 1018.4 |
| 20260903204524 | 65 | 175 | 3.5 | 7.0 | 0.00 | 0.00 | 0.00 | 88 | 1018.7 |
| 20260903203024 | 65 | 193 | 2.6 | 6.1 | 0.00 | 0.00 | 0.00 | 88 | 1018.7 |
| 20260903201522 | 66 | 175 | 2.6 | 8.7 | 0.00 | 0.00 | 0.00 | 87 | 1018.8 |
| 20260903200020 | 66 | 151 | 2.6 | 7.8 | 0.00 | 0.00 | 0.00 | 86 | 1019.0 |
| 20260903194519 | 66 | 153 | 3.5 | 7.8 | 0.00 | 0.00 | 0.00 | 86 | 1019.2 |
| 20260903193019 | 66 | 151 | 3.5 | 7.0 | 0.00 | 0.00 | 0.00 | 84 | 1019.2 |
| 20260903191525 | 66 | 166 | 4.3 | 8.7 | 0.00 | 0.00 | 0.00 | 84 | 1019.4 |
| 20260903190015 | 67 | 114 | 4.3 | 7.8 | 0.00 | 0.00 | 0.00 | 84 | 1019.5 |
| 20260903184513 | 67 | 145 | 4.3 | 8.7 | 0.00 | 0.00 | 0.00 | 82 | 1019.8 |
| 20260903183021 | 67 | 196 | 3.5 | 8.7 | 0.00 | 0.00 | 0.00 | 83 | 1019.9 |
| 20260903181509 | 67 | 167 | 2.6 | 7.8 | 0.00 | 0.00 | 0.00 | 83 | 1020.1 |
| 20260903180015 | 67 | 165 | 2.6 | 7.8 | 0.00 | 0.00 | 0.00 | 83 | 1020.3 |
| 20260903174506 | 66 | 155 | 3.5 | 7.8 | 0.00 | 0.00 | 0.00 | 82 | 1020.4 |
| 20260903173006 | 66 | 177 | 5.2 | 9.6 | 0.00 | 0.00 | 0.00 | 82 | 1020.4 |
| 20260903171504 | 66 | 174 | 3.5 | 8.7 | 0.00 | 0.00 | 0.00 | 83 | 1020.5 |
| 20260903170002 | 66 | 121 | 4.3 | 7.8 | 0.00 | 0.00 | 0.00 | 81 | 1020.7 |
| 20260903164601 | 66 | 224 | 5.2 | 8.7 | 0.00 | 0.00 | 0.00 | 80 | 1020.8 |
| 20260903163135 | 66 | 193 | 3.5 | 8.7 | 0.00 | 0.00 | 0.00 | 81 | 1020.9 |
| 20260903161600 | 66 | 152 | 5.2 | 8.7 | 0.00 | 0.00 | 0.00 | 80 | 1020.9 |
| 20260903154557 | 66 | 117 | 2.6 | 9.6 | 0.00 | 0.00 | 0.00 | 83 | 1020.9 |
| 20260903153056 | 66 | 165 | 3.5 | 9.6 | 0.00 | 0.00 | 0.00 | 82 | 1021.1 |
| 20260903151555 | 66 | 223 | 1.7 | 9.6 | 0.00 | 0.00 | 0.00 | 83 | 1021.2 |
| 20260903150057 | 66 | 139 | 2.6 | 7.8 | 0.00 | 0.00 | 0.00 | 82 | 1021.1 |
| 20260903144554 | 66 | 165 | 3.5 | 7.8 | 0.00 | 0.00 | 0.00 | 81 | 1021.1 |
| 20260903143053 | 67 | 214 | 0.9 | 4.3 | 0.00 | 0.00 | 0.00 | 81 | 1021.3 |
| 20260903141549 | 67 | 149 | 1.7 | 8.7 | 0.00 | 0.00 | 0.00 | 82 | 1021.5 |
| 20260903140049 | 67 | 195 | 2.6 | 7.8 | 0.00 | 0.00 | 0.00 | 82 | 1021.8 |
| 20260903134609 | 66 | 156 | 3.5 | 7.8 | 0.00 | 0.00 | 0.00 | 82 | 1021.5 |
| 20260903133051 | 66 | 107 | 1.7 | 7.0 | 0.00 | 0.00 | 0.00 | 84 | 1021.5 |
| 20260903131545 | 65 | 179 | 2.6 | 7.0 | 0.00 | 0.00 | 0.00 | 84 | 1021.5 |
| 20260903130049 | 65 | 158 | 0.9 | 7.8 | 0.00 | 0.00 | 0.00 | 85 | 1021.4 |
| 20260903124548 | 65 | 172 | 2.6 | 7.8 | 0.00 | 0.00 | 0.00 | 85 | 1021.3 |
| 20260903123044 | 65 | 129 | 2.6 | 7.8 | 0.00 | 0.00 | 0.00 | 85 | 1021.5 |
| 20260903121550 | 65 | 200 | 1.7 | 7.0 | 0.00 | 0.00 | 0.00 | 85 | 1021.5 |
| 20260903120056 | 66 | 174 | 0.9 | 5.2 | 0.00 | 0.00 | 0.00 | 85 | 1021.7 |
| 20260903114557 | 66 | 208 | 2.6 | 7.0 | 0.00 | 0.00 | 0.00 | 85 | 1021.8 |
| 20260903113040 | 65 | 183 | 3.5 | 7.8 | 0.00 | 0.00 | 0.00 | 84 | 1021.9 |
| 20260903111538 | 65 | 148 | 0.9 | 6.1 | 0.00 | 0.00 | 0.00 | 85 | 1021.8 |
| 20260903110037 | 65 | 149 | 0.9 | 6.1 | 0.00 | 0.00 | 0.00 | 85 | 1021.8 |
| 20260903104538 | 65 | 224 | 3.5 | 6.1 | 0.00 | 0.00 | 0.00 | 85 | 1021.8 |
| 20260903103037 | 65 | 129 | 1.7 | 6.1 | 0.00 | 0.00 | 0.00 | 84 | 1021.9 |
| 20260903101538 | 65 | 196 | 1.7 | 6.1 | 0.00 | 0.00 | 0.00 | 84 | 1021.7 |
| 20260903100044 | 65 | 181 | 1.7 | 5.2 | 0.00 | 0.00 | 0.00 | 83 | 1021.7 |
| 20260903094537 | 65 | 169 | 1.7 | 7.0 | 0.00 | 0.00 | 0.00 | 83 | 1021.7 |
| 20260903093034 | 65 | 193 | 1.7 | 4.3 | 0.00 | 0.00 | 0.00 | 83 | 1021.7 |
| 20260903091532 | 65 | 180 | 0.9 | 4.3 | 0.00 | 0.00 | 0.00 | 83 | 1021.8 |
| 20260903090033 | 65 | 189 | 0.9 | 6.1 | 0.00 | 0.00 | 0.00 | 82 | 1021.9 |
| 20260903084532 | 65 | 234 | 1.7 | 5.2 | 0.00 | 0.01 | 0.00 | 83 | 1021.9 |
| 20260903083041 | 65 | 248 | 1.7 | 6.1 | 0.00 | 0.01 | 0.00 | 83 | 1021.9 |
| 20260903081530 | 65 | 219 | 1.7 | 5.2 | 0.00 | 0.01 | 0.00 | 82 | 1021.8 |
| 20260903080028 | 65 | 207 | 0.9 | 5.2 | 0.00 | 0.01 | 0.00 | 83 | 1021.9 |
| 20260903074528 | 65 | 195 | 1.7 | 7.0 | 0.00 | 0.01 | 0.00 | 84 | 1022.0 |
| 20260903073027 | 65 | 236 | 1.7 | 0.0 | 0.00 | 0.00 | 0.00 | 84 | 1022.1 |
| 20260903071529 | 65 | 250 | 0.9 | 6.1 | 0.00 | 0.01 | 0.00 | 84 | 1022.1 |
| 20260903070025 | 65 | 177 | 1.7 | 4.3 | 0.00 | 0.01 | 0.00 | 85 | 1022.0 |
| 20260903064525 | 65 | 218 | 1.7 | 6.1 | 0.00 | 0.01 | 0.00 | 84 | 1022.2 |
| 20260903063024 | 65 | 179 | 1.7 | 5.2 | 0.00 | 0.01 | 0.00 | 85 | 1022.1 |
| 20260903061539 | 66 | 145 | 2.6 | 7.8 | 0.00 | 0.01 | 0.00 | 84 | 1022.0 |
| 20260903060023 | 66 | 130 | 1.7 | 7.8 | 0.00 | 0.01 | 0.00 | 85 | 1022.1 |
| 20260903054523 | 66 | 205 | 1.7 | 6.1 | 0.00 | 0.01 | 0.00 | 85 | 1021.9 |
| 20260903053022 | 66 | 190 | 1.7 | 6.1 | 0.00 | 0.01 | 0.00 | 85 | 1021.8 |
| 20260903051519 | 65 | 255 | 0.0 | 5.2 | 0.00 | 0.01 | 0.00 | 85 | 1022.0 |
| 20260903050019 | 65 | 221 | 0.9 | 3.5 | 0.00 | 0.01 | 0.00 | 85 | 1022.1 |
| 20260903044518 | 65 | 248 | 0.9 | 3.5 | 0.00 | 0.01 | 0.00 | 85 | 1022.2 |
| 20260903043018 | 65 | 233 | 0.9 | 2.6 | 0.00 | 0.01 | 0.00 | 84 | 1022.3 |
| 20260903041528 | 65 | 224 | 0.9 | 3.5 | 0.00 | 0.01 | 0.00 | 85 | 1022.3 |
| 20260903040018 | 65 | 178 | 0.9 | 3.5 | 0.00 | 0.01 | 0.00 | 85 | 1022.4 |
| 20260903034515 | 65 | 216 | 3.5 | 5.2 | 0.00 | 0.01 | 0.00 | 84 | 1022.5 |
| 20260903033016 | 65 | 224 | 0.9 | 4.3 | 0.00 | 0.01 | 0.00 | 85 | 1022.4 |
| 20260903031520 | 65 | 186 | 0.9 | 4.3 | 0.00 | 0.01 | 0.00 | 86 | 1022.1 |